Regional Weather Roundup
Issued by NWS Sterling, VA

Home | Current Version | Previous Version | Text Only | Print | Product List | Glossary Off
Versions: 1 2 3 4 5 6 7 8 9 10 11 12 13 14 15 16 17 18 19 20 21 22 23 24 25 26 27 28 29 30 31 32 33 34 35 36 37 38 39 40 41 42 43 44 45 46 47 48 49 50

000
ASUS41 KLWX 301810
RWRLWX

REGIONAL WEATHER ROUNDUP
NATIONAL WEATHER SERVICE BALTIMORE MD/WASHINGTON DC
200 PM EDT TUE JUN 30 2015

Note: "FAIR" indicates few or no clouds below 12,000 feet
with no significant weather and/or obstructions to visibility.
 TC=TEMPERATURE CELSIUS

 * =Non NWS site. Station does not report precipitation (e.g. rain,
    snow, etc.), thunder, or fog.

DCZ001-MDZ009-015-VAZ040>042-051-053>054-301900-
WASHINGTON METRO

CITY           SKY/WX    TMP DP  RH WIND       PRES   REMARKS
WASHINGTON NAT PTSUNNY   87  68  52 SW15      29.87F HX  90
DULLES         PTSUNNY   83  68  60 SW10      29.86F
ANDREWS AFB    PTSUNNY   83  71  67 S15       29.86F
FT BELVOIR     MOSUNNY   86  68  54 S8        29.86F
QUANTICO       PTSUNNY   84  66  54 SW7       29.87F
COLLEGE PARK*  PTSUNNY   84  68  58 S7        29.86F
LEESBURG*      MOSUNNY   86  70  58 S16       29.87F HX  90
MANASSAS*      MOSUNNY   84  68  58 S7          N/A
GAITHERSBURG*  PTSUNNY   84  68  58 S7        29.90F

$$

MDZ006>007-011-014-301900-
BALTIMORE METRO

CITY           SKY/WX    TMP DP  RH WIND       PRES   REMARKS
BWI AIRPORT    PTSUNNY   83  69  62 S7        29.85F
MD SCIENCE CTR   N/A     83  72  69 MISG      29.84F
MARTIN STATE   PTSUNNY   79  75  89 S14       29.90S
ANNAPOLIS      MOSUNNY   81  71  71 S16G24    29.86F
FORT MEADE*    PTSUNNY   79  70  73 SW8       29.88F

$$

MDZ012-015-019>023-301900-
MARYLAND EASTERN SHORE

CITY           SKY/WX    TMP DP  RH WIND       PRES   REMARKS
OCEAN CITY     SUNNY     79  71  76 S8G17     29.93
SALISBURY      SUNNY     85  71  63 SE16G24   29.90F HX  90
BAY BRIDGE AP*   N/A     82  68  61 S14G20    29.87F
CAMBRIDGE*     MOSUNNY   86  64  48 S18       29.89F
EASTON*        PTSUNNY   86  68  54 S17G23    29.92F

$$

MDZ017>025-301900-
SOUTHERN MARYLAND

CITY           SKY/WX    TMP DP  RH WIND       PRES   REMARKS
PATUXENT RIVER MOSUNNY   84  72  67 SE15G24   29.87F
ST INIGOES     SUNNY     86  72  62 S13G22    29.87F HX  92
LEONARDTOWN*   PTSUNNY   84  68  58 S7        29.89F

$$

MDZ003>005-301900-
NORTH CENTRAL MARYLAND

CITY           SKY/WX    TMP DP  RH WIND       PRES   REMARKS
FREDERICK*     MOSUNNY   84  72  65 SW7       29.88F
HAGERSTOWN APT PTSUNNY   82  66  58 VRB6      29.86F
WESTMINSTER*   MOSUNNY   84  68  58 S10G16    29.87F

$$

MDZ501>502-301900-
WESTERN MARYLAND

CITY           SKY/WX    TMP DP  RH WIND       PRES   REMARKS
OAKLAND*       MOSUNNY   70  70 100 SW10G16   29.96F
CUMBERLAND*    SUNNY     82  63  51 SE9       29.89F

$$

VAZ025>031-301900-
SHENANDOAH VALLEY

CITY           SKY/WX    TMP DP  RH WIND       PRES   REMARKS
WINCHESTER*    CLOUDY    82  64  54 S5        29.87F
FRONT ROYAL*   FAIR      82  64  54 SW5       29.86F
LURAY*         FAIR      88  66  48 SW10      29.87F HX  90
NEW MARKET*    MOCLDY    83  67  58 SW5       29.85F
STAUNTON*      PTSUNNY   84  65  53 S10       29.92F
WAYNESBORO*    FAIR      78  65  63 S7        29.94F

$$

WVZ021-048>050-054>055-301900-
EASTERN WEST VIRGINIA PANHANDLE

CITY           SKY/WX    TMP DP  RH WIND       PRES   REMARKS
MARTINSBURG    MOSUNNY   84  64  50 SW9       29.86F
PETERSBURG*    PTSUNNY   83  55  38 NE5       29.87F

$$

VAZ036>039-050-301900-
CENTRAL FOOTHILLS

CITY           SKY/WX    TMP DP  RH WIND       PRES   REMARKS
CHARLOTTESVILL PTSUNNY   80  66  62 SW9       29.90F
CULPEPER*      PTSUNNY   81  67  63 SW7       29.88F
ORANGE*        PTSUNNY   84  68  58 S8        29.90F
GORDONSVILLE*  FAIR      81  66  61 SW13      29.89F
WARRENTON*     FAIR      83  72  68 S7        29.87F

$$

VAZ055>057-301900-
NORTH AND CENTRAL PIEDMONT

CITY           SKY/WX    TMP DP  RH WIND       PRES   REMARKS
FREDERICKSBRG* MOSUNNY   88  69  52 SW9       29.86F HX  92
STAFFORD*      MOSUNNY   81  68  63 SW5       29.92S

$$

NCZ024-NYZ072-PAZ021-071-VAZ022-071-301900-
OTHER REGIONAL OBSERVATIONS

CITY           SKY/WX    TMP DP  RH WIND       PRES   REMARKS
NEW YORK CITY  MOSUNNY   81  56  42 MISG      29.96F
PHILADELPHIA   MOSUNNY   84  65  52 S16       29.88F
PITTSBURGH     PTSUNNY   77  63  61 SW15      29.84F
ROANOKE        MOSUNNY   82  63  52 SW13      29.95F
RICHMOND       PTSUNNY   89  68  49 SW13      29.88F HX  93
RALEIGH        MOSUNNY   89  67  47 VRB3      29.92F HX  92

$$

ANZ530>537-301900-
MARINE OBSERVATIONS

STATION/POSITION TIME  TEMP    WIND        PRES
                       AIR SEA DIR/SP/G
                 (UTC) (F)     (DEG/KT/KT) (MB)
THOMAS PT LIGHT  NOT AVBL
BALT KEY BRIDGE  1700   78     140/ 16/ 18 1011.0F
COVE POINT       1700   78     180/ 22/ 25 1012.9F
LEWISETTA        1700   84 81  210/ 12/ 17 1011.8F
SOLOMONS ISLAND  1700      80                N/A
PINEY POINT      1700          190/ 10/ 11   N/A

$$




USA.gov is the U.S. government's official web portal to all federal, state and local government web resources and services.